Flag for Canada Weather past 2 weeks in Chatham-Kent, Ontario, Canada

Now
62 °F

Cool.


Feels Like: 62 °F
Forecast: 61 / 70 °F
Wind: 7 mph from South

Location: Erieau

Current Time: May 27, 2015 at 2:51:20 PM

Latest Report: May 27, 2015 at 2:00 PM


Visibility: N/A

Pressure: 29.98 "Hg

Humidity: 83%

Dew point: 57 °F

Location of Chatham-KentLocation

Historic Weather in Chatham-Kent — Graph

°F

Chatham-Kent temperature yesterday

Maximum temperature yesterday: 65 °F (at 8:00 PM)
Minimum temperature yesterday: 56 °F (at 3:00 AM)
Average temperature yesterday: 59 °F

Past Weeks' High & Low Weather Summary

 TemperatureHumidityPressure
High65 °F (May 24, 6:00 PM)100% (May 16, 11:00 PM)30.50 "Hg (May 16, 11:00 PM)
Low40 °F (May 14, 4:00 AM)26% (May 13, 8:00 PM)29.93 "Hg (May 26, 7:00 PM)
Average53 °F77%30.13 "Hg
* Reported May 12 1:00 PM — May 27 1:00 PM, Chatham-Kent, Weather by CustomWeather, © 2015

Note: Actual official high and low records may vary slightly from our data, if they occured in-between our weather recording intervals... More about our weather records

Advertising

Chatham-Kent weather history for previous 24 hours

 ConditionsComfort  
Time TempWeatherWind HumidityBarometerVisibility
1:00 PM
Wed, May 27
61 °FCool.9 mph86%30.01 "HgN/A
12:00 PM61 °FCool.13 mph89%30.01 "HgN/A
11:00 AM60 °FCool.13 mph92%30.01 "HgN/A
10:00 AM59 °FCool.13 mph94%30.01 "HgN/A
9:00 AM58 °FCool.14 mph97%30.01 "HgN/A
8:00 AM58 °FCool.15 mph97%29.99 "HgN/A
7:00 AM57 °FCool.13 mph97%29.98 "HgN/A
6:00 AM57 °FCool.13 mph97%29.96 "HgN/A
5:00 AM58 °FCool.10 mph97%29.94 "HgN/A
4:00 AM58 °FCool.14 mph96%29.94 "HgN/A
3:00 AM58 °FCool.14 mph96%29.94 "HgN/A
2:00 AM59 °FCool.15 mph95%29.93 "HgN/A
1:00 AM59 °FCool.12 mph94%29.94 "HgN/A
12:00 AM60 °FCool.15 mph98%29.95 "HgN/A
11:00 PM
Tue, May 26
59 °FCool.6 mph97%29.94 "HgN/A
10:00 PM60 °FCool.5 mph96%29.95 "HgN/A
9:00 PM62 °FCool.5 mph96%29.93 "HgN/A
8:00 PM65 °FMild.13 mph92%29.96 "HgN/A
7:00 PM59 °FCool.12 mph92%29.93 "HgN/A
6:00 PM60 °FCool.12 mph87%29.93 "HgN/A
5:00 PM60 °FCool.9 mph94%29.96 "HgN/A
4:00 PM60 °FCool.10 mph92%29.99 "HgN/A
3:00 PM58 °FCool.7 mph99%30.02 "HgN/A
2:00 PM58 °FCool.8 mph92%30.05 "HgN/A
Weather by CustomWeather, © 2015

See weather overviewHow to use our weather pages